This demonstration page uses our WeatherBlox Daily Observations layout. Learn more.

Left ArrowRight Arrow

Hourly Observations for January 31, 2020

Temp ( °F °C ) Dew Point ( °F °C ) Humidity (%) Winds ( mph kmh ) Pressure ( in mb ) Visibility ( mi km ) Precip ( " mm )
12:53 am 00:53 Clear 35 1.7 31 -0.6 85 85 NW 12 19 30.01 1016 10 16 0.00 0.00
1:53 am 01:53 Clear 34 1.1 30 -1.1 85 85 NW 16 26 30.01 1016 10 16 0.00 0.00
2:53 am 02:53 Clear 33 0.6 29 -1.7 85 85 NW 9 15 30.01 1016 10 16 0.00 0.00
3:53 am 03:53 Partly Cloudy 33 0.6 29 -1.7 85 85 NW 9 15 30.01 1016 10 16 0.00 0.00
4:04 am 04:04 Mostly Cloudy 33 0.6 30 -1.1 89 89 NW 10 17 30.05 1018 10 16 0.00 0.00
4:53 am 04:53 Cloudy 34 1.1 30 -1.1 85 85 NW 13 20 30.02 1017 10 16 0.00 0.00
5:53 am 05:53 Cloudy 35 1.7 30 -1.1 82 82 NW 16 26 30.04 1017 10 16 0.00 0.00
6:04 am 06:04 Cloudy 35 1.7 30 -1.1 82 82 NNW 14 22 30.06 1018 10 16 0.00 0.00
6:14 am 06:14 Cloudy 35 1.7 30 -1.1 82 82 NW 12 19 30.06 1018 10 16 0.00 0.00
6:53 am 06:53 Mostly Cloudy 34 1.1 29 -1.7 82 82 NW 14 22 30.04 1017 10 16 0.00 0.00
7:09 am 07:09 Partly Cloudy 33 0.6 28 -2.2 82 82 NW 12 19 30.09 1019 10 16 0.00 0.00
7:53 am 07:53 Sunny 31 -0.6 26 -3.3 82 82 NW 13 20 30.07 1018 10 16 0.00 0.00
8:53 am 08:53 Sunny 32 0 25 -3.9 75 75 WNW 12 19 30.07 1018 10 16 0.00 0.00
9:53 am 09:53 Sunny 33 0.6 25 -3.9 72 72 NW 13 20 30.08 1019 10 16 0.00 0.00
10:53 am 10:53 Sunny 35 1.7 25 -3.9 67 67 NW 15 24 30.09 1019 10 16 0.00 0.00
11:53 am 11:53 Sunny 37 2.8 26 -3.3 65 65 NW 15 24 30.08 1019 10 16 0.00 0.00
12:53 pm 12:53 Partly Cloudy 38 3.3 26 -3.3 62 62 NW 16 26 30.07 1018 10 16 0.00 0.00
1:53 pm 13:53 Sunny 39 3.9 26 -3.3 60 60 NW 17 28 30.05 1018 10 16 0.00 0.00
2:53 pm 14:53 Sunny 40 4.4 27 -2.8 60 60 NNW 14 22 30.05 1018 10 16 0.00 0.00
3:53 pm 15:53 Sunny 40 4.4 26 -3.3 58 58 NNW 14 22 30.06 1018 10 16 0.00 0.00
4:53 pm 16:53 Sunny 39 3.9 27 -2.8 62 62 NNW 9 15 30.06 1018 10 16 0.00 0.00
5:53 pm 17:53 Clear 35 1.7 26 -3.3 70 70 NW 5 7 30.09 1019 10 16 0.00 0.00
6:53 pm 18:53 Clear 31 -0.6 26 -3.3 82 82 Calm 30.10 1019 10 16 0.00 0.00
7:53 pm 19:53 Clear 31 -0.6 25 -3.9 79 79 Calm 30.11 1020 10 16 0.00 0.00
8:53 pm 20:53 Clear 29 -1.7 25 -3.9 85 85 Calm 30.12 1020 10 16 0.00 0.00
9:53 pm 21:53 Clear 27 -2.8 23 -5 85 85 Calm 30.14 1021 10 16 0.00 0.00
10:53 pm 22:53 Clear 27 -2.8 23 -5 85 85 Calm 30.14 1021 10 16 0.00 0.00
11:53 pm 23:53 Clear 26 -3.3 23 -5 88 88 Calm 30.14 1021 10 16 0.00 0.00

Powered by AerisWeather